Weather in Southend-on-Sea

United Kingdom     51°32′51″N   0°42′18″E
temp.,
°C
wind,
m/s
gust,
m/s
humid.,
%
clouds,
%
prec.,
mm/h
press.,
hPa
HPBL,
m
19 april, mon
mon1901:00+7ne22800 0.0 102448
04:00+6nne33820 0.0 1023137
07:00+5n22810 0.0 1023123
10:00+7nne12732 0.0 1023222
13:00+7ese22780 0.0 1022234
16:00+8e33710 0.0 1020178
19:00+9e33740 0.0 102063
22:00+8ese22795 0.0 102012
20 april, tue
tue2001:00+8ne118012 0.0 101912
04:00+7n22815 0.0 101943
07:00+6n22845 0.0 101991
10:00+8ne22845 0.0 1019182
13:00+8e238918 0.1 1019218
16:00+9e338520 0.0 1018195
19:00+9e338330 0.0 101859
22:00+9e33815 0.0 101916
21 april, wed
wed2101:00+9nne338299 0.0 101922
04:00+7n469099 0.0 1019141
07:00+7n69905 0.0 1020296
10:00+9ne9118586 0.0 1022723
13:00+8ene9107446 0.0 1023628
16:00+7ene910719 0.0 1023546
19:00+7ene911735 0.0 1024668
22:00+6ne89727 0.0 1025760
22 april, thu
thu2201:00+5ne68765 0.0 1025610
04:00+4nne568252 0.0 1025287
07:00+3n568099 0.0 1026247
10:00+7nne576838 0.0 1027541
13:00+8e346689 0.0 1027433
16:00+8e557463 0.0 1027413
19:00+8e45725 0.0 1028322
22:00+7ne35815 0.0 1029280
23 april, fri
fri2301:00+5nne46820 0.0 1029220
04:00+5nne45870 0.0 1029204
07:00+5nne45875 0.0 1030213
10:00+7ne45765 0.0 1031426
13:00+7e447615 0.0 1030371
16:00+8e34725 0.0 1030247
19:00+8e46715 0.0 1030269
22:00+8e467794 0.0 1030202